Theta_e
319 318 318 318 316 315 315 314 314 314 314 314 315 315 315 315 314 313 313 313 314 313 312 312 312 312 314 305 302 324 335 330 325 313 310 307 305 305 301 305 307 303 306 307 307 308 308
318 318 318 317 315 314 314 314 314 314 314 314 314 314 314 314 314 314 312 313 313 312 312 313 312 313 309 296 307 329 327 324 314 312 310 310 307 309 305 306 305 307 305 307 309 310 309
317 317 317 317 315 314 313 313 313 313 314 314 314 313 313 313 314 314 313 312 313 313 313 314 314 314 309 301 321 328 325 317 315 312 308 311 311 309 308 304 309 309 303 306 306 308 308
317 317 316 316 315 314 313 313 313 313 313 313 313 313 313 313 313 313 313 311 312 312 314 314 314 314 300 309 314 314 322 316 316 313 313 312 313 310 307 306 301 301 301 298 303 304 305
316 316 317 317 315 314 313 313 313 313 313 313 313 312 313 312 313 313 312 311 312 313 314 315 312 309 302 317 312 316 319 314 315 312 313 313 311 306 305 301 298 297 295 296 300 303 303
316 316 316 315 315 314 313 313 313 313 313 313 313 312 312 312 313 313 312 314 313 316 315 315 315 306 310 308 314 316 317 314 311 311 308 306 305 302 299 299 293 295 296 298 299 300 303
315 315 315 315 314 314 314 313 313 313 313 313 312 312 312 312 312 312 310 311 309 308 310 306 308 305 310 316 316 312 312 310 309 307 300 303 300 298 300 300 300 299 298 297 300 303 303
314 314 314 314 314 313 313 312 312 312 313 312 312 311 311 311 312 312 308 304 306 310 305 311 311 311 313 315 309 309 313 308 304 299 302 300 298 303 303 301 299 298 298 298 301 302 303
313 313 313 312 312 312 311 311 311 311 311 312 312 311 311 311 311 308 304 304 311 309 303 305 311 310 311 313 308 308 310 309 305 301 302 299 301 304 301 299 298 300 298 299 300 308 313
311 311 311 311 310 310 310 310 310 310 311 310 310 310 311 311 305 305 302 309 310 309 300 303 306 310 312 313 308 314 314 311 305 302 302 302 305 302 301 300 301 297 302 300 305 303 300
309 310 310 309 309 309 309 309 309 310 309 309 309 310 311 309 304 301 307 309 311 310 289 303 308 317 313 310 310 308 315 311 304 303 303 300 302 301 300 302 303 300 300 299 303 301 301
308 308 308 309 309 308 308 308 308 308 309 308 309 309 310 307 306 307 309 310 310 300 289 303 309 307 307 309 308 308 309 311 310 304 303 304 307 306 304 301 305 299 299 298 297 299 296
308 308 307 308 308 308 309 308 308 309 308 308 309 308 306 307 302 309 309 306 298 292 302 303 306 307 306 305 304 306 304 304 301 297 298 301 303 305 302 298 299 299 298 292 292 292 293
308 308 307 308 308 310 309 309 308 308 308 308 307 306 307 308 309 309 306 302 293 298 299 306 307 308 303 306 305 305 303 301 304 302 299 296 296 300 303 301 299 297 299 295 289 290 291
307 307 308 308 309 308 308 308 308 307 307 307 306 306 304 309 310 308 303 293 296 299 303 306 306 302 302 304 304 303 304 302 304 304 299 298 298 302 301 302 302 297 296 297 293 291 292
307 307 308 308 307 307 308 307 308 308 308 307 301 300 304 311 311 306 300 295 301 304 309 306 301 304 299 302 301 303 301 304 303 305 307 302 298 299 298 303 301 302 299 295 296 289 287
307 307 307 308 307 307 307 307 308 308 307 306 301 301 308 311 309 303 294 298 302 307 308 305 303 303 303 302 302 300 302 306 307 303 306 305 301 297 300 298 299 297 297 295 296 294 291
307 307 308 308 308 306 307 306 307 307 306 305 300 301 310 310 300 301 299 302 302 305 307 309 308 305 304 304 302 301 301 304 306 306 302 299 303 297 296 299 299 298 298 300 295 292 292
306 306 307 308 308 306 307 307 306 307 306 303 298 302 313 314 298 299 303 302 305 304 306 307 306 308 307 304 300 303 304 306 304 303 302 302 297 293 293 297 300 298 296 296 297 298 293
307 306 307 307 308 306 307 307 307 307 306 305 302 303 308 312 309 302 300 299 299 306 305 308 307 307 304 301 303 303 303 302 305 305 310 309 297 294 291 297 298 296 296 297 300 295 294
306 306 306 306 307 306 306 308 308 307 306 306 303 300 302 299 303 303 302 300 298 300 305 306 305 304 303 300 300 300 304 302 303 307 303 305 298 297 296 296 297 297 296 296 296 296 295
306 306 306 306 306 306 306 308 308 307 306 304 299 298 302 302 304 303 301 300 299 300 302 301 302 302 304 301 301 299 302 301 302 302 305 305 297 299 294 297 297 296 298 297 297 297 296
306 306 307 307 307 307 308 307 307 307 306 302 302 304 301 301 302 301 300 301 301 302 304 303 302 302 301 302 304 304 305 304 303 304 301 304 300 297 291 295 296 292 296 298 298 300 299
306 307 307 307 307 308 307 307 307 307 307 304 302 301 302 299 301 300 302 302 302 303 302 305 306 303 305 307 307 307 308 307 306 304 303 299 299 297 294 295 287 296 301 301 299 298 300
305 306 306 306 306 307 308 307 308 308 307 305 305 302 302 300 301 302 302 302 304 305 303 304 306 308 307 302 300 298 297 300 301 303 302 302 300 294 292 292 293 295 297 297 297 296 298
305 305 305 306 306 307 308 308 308 308 307 305 304 304 303 302 301 303 301 303 301 300 303 304 309 311 305 300 297 291 291 293 295 298 303 303 303 299 293 290 288 293 298 301 301 293 298
304 305 305 306 306 307 307 308 308 308 307 305 304 304 304 304 306 306 302 301 304 302 301 303 306 307 308 301 297 294 294 298 294 293 294 297 298 295 292 292 291 296 298 302 290 291 298
304 305 305 306 307 307 308 308 309 308 308 305 303 305 303 303 306 307 308 306 306 305 302 306 304 306 305 299 299 297 297 297 295 295 292 294 294 292 294 290 286 298 296 293 293 297 296
304 305 305 305 307 307 308 308 309 309 308 305 302 304 305 302 304 307 310 312 311 309 308 307 306 305 306 301 300 301 298 299 294 289 296 294 296 295 294 292 297 297 295 296 296 295 295
Wind_Speed
20 21 21 21 22 22 21 21 20 20 20 20 20 19 19 18 17 15 13 12 10 8 6 5 4 3 3 4 11 3 14 17 17 14 16 13 23 11 14 11 8 14 6 11 14 13 11
20 20 21 21 22 22 21 21 21 20 20 19 19 19 19 19 18 16 14 12 10 8 7 5 3 3 4 8 2 7 12 16 18 18 14 17 14 8 9 8 15 9 20 14 6 11 9
20 20 21 20 21 21 21 21 21 21 21 20 19 19 19 19 18 16 15 12 9 7 7 5 5 5 4 12 5 9 13 7 16 12 17 8 11 11 7 5 10 9 4 13 15 13 9
20 20 20 20 20 20 20 21 21 21 21 21 20 20 20 20 19 17 15 13 10 6 6 4 5 3 9 2 5 6 9 6 10 4 8 5 6 6 4 2 4 7 5 9 4 14 5
21 20 19 19 20 20 21 21 21 21 22 21 21 21 19 21 20 18 16 14 8 4 4 6 5 4 8 4 6 11 13 12 14 3 3 6 6 6 4 5 4 3 4 7 3 8 7
21 21 21 21 21 21 21 21 21 22 22 22 20 21 19 20 19 16 15 9 5 6 5 4 5 5 7 4 7 11 8 18 9 10 5 6 5 7 3 6 8 7 6 4 3 6 8
22 22 22 22 22 20 20 21 22 22 23 22 22 21 20 20 17 12 6 1 4 4 6 11 7 4 2 8 10 6 12 11 10 11 9 7 8 13 11 10 3 5 5 3 2 4 6
22 22 23 23 23 23 23 23 23 23 22 23 23 22 21 21 17 9 3 6 4 4 7 21 10 12 6 1 5 13 12 9 15 15 9 8 14 13 7 10 8 6 5 6 4 2 5
22 23 23 23 24 24 24 24 24 24 24 23 21 21 20 22 21 3 7 10 4 11 5 5 9 8 7 12 8 17 17 9 13 11 13 12 6 14 12 8 10 10 11 5 2 8 6
23 23 23 23 24 24 25 25 25 25 25 25 23 23 19 20 2 2 7 8 9 7 4 5 7 8 8 7 7 14 20 12 5 12 10 7 7 11 12 14 12 11 10 5 13 8 6
25 25 25 25 25 25 26 26 26 25 26 25 25 21 18 8 10 5 3 7 4 4 4 4 5 6 9 13 16 10 14 6 10 8 7 7 10 11 11 16 15 4 8 7 10 5 12
25 26 26 25 25 26 26 27 26 27 26 27 25 25 18 8 6 13 4 9 4 5 7 2 7 10 9 7 7 9 12 3 2 5 4 7 1 3 5 3 17 12 8 7 3 4 5
25 25 26 25 25 26 24 26 27 26 28 29 29 29 20 9 6 3 7 3 5 6 1 5 4 8 13 8 7 15 15 12 11 10 11 4 10 3 9 13 8 4 8 5 7 6 1
26 26 26 24 26 25 26 24 25 26 28 27 32 32 6 7 15 3 6 5 6 6 5 2 2 7 9 5 6 13 17 15 8 5 4 9 6 9 8 4 11 4 4 4 6 4 4
26 26 26 27 25 25 25 25 25 27 27 28 31 3 4 3 7 9 7 10 8 5 5 5 3 3 4 3 5 8 15 18 17 12 4 6 4 3 5 4 4 6 3 3 8 2 3
27 27 26 26 27 27 26 28 26 27 28 29 9 5 3 5 12 8 6 6 6 3 4 2 2 2 3 3 4 5 12 6 10 12 7 2 4 4 4 2 12 3 10 5 2 6 5
26 26 26 25 27 28 28 30 27 28 28 28 3 3 7 8 5 4 8 8 3 4 3 3 3 4 2 1 3 3 4 4 1 4 7 7 1 4 5 2 9 6 4 5 4 4 5
26 26 26 26 25 28 27 29 28 27 29 6 4 3 4 6 5 2 4 4 2 5 3 3 3 4 3 3 2 3 4 3 2 6 6 2 3 4 2 3 0 3 2 7 8 7 2
25 26 25 25 25 29 27 28 30 29 27 5 4 3 3 4 3 4 2 1 1 1 3 4 3 1 2 4 4 4 2 2 2 4 5 6 4 4 3 4 2 2 3 3 5 3 7
25 26 26 26 26 28 27 28 29 30 29 1 3 2 3 2 3 4 3 4 2 4 5 3 3 3 3 2 4 6 7 2 5 2 2 4 5 3 4 7 4 5 5 6 3 4 7
26 26 27 26 26 27 28 27 29 31 30 2 5 4 3 5 5 7 6 7 3 4 4 2 3 1 4 3 2 2 4 7 4 6 5 1 8 4 4 2 1 7 9 7 3 5 4
25 26 27 27 26 26 27 26 28 31 28 5 4 5 6 5 6 12 10 11 9 3 8 4 6 6 5 4 4 0 2 3 4 4 3 5 4 5 2 4 5 8 6 4 4 3 1
24 26 25 24 24 25 25 25 25 27 19 5 4 3 4 7 7 5 5 10 11 5 9 9 3 9 11 6 5 6 8 9 5 3 4 7 5 0 2 2 2 2 4 3 4 4 4
24 25 24 24 25 24 24 24 23 23 20 2 3 3 4 7 7 3 9 4 11 10 6 7 11 4 4 4 7 6 12 15 17 14 7 4 4 2 8 8 13 5 6 3 6 5 5
25 25 25 25 25 24 22 22 20 19 20 3 4 4 4 5 4 6 15 8 10 8 7 6 8 5 5 2 1 3 2 1 8 11 10 5 4 5 4 6 3 1 3 3 2 2 3
25 25 24 24 25 24 23 20 18 17 18 3 3 3 1 2 9 6 5 9 6 7 4 5 4 5 2 3 3 2 2 3 3 3 5 9 5 3 5 7 7 5 2 3 1 3 2
25 24 24 25 25 24 23 21 18 16 15 5 2 4 2 2 3 5 6 5 4 3 2 3 8 9 6 3 3 2 3 2 2 2 4 3 4 2 3 3 5 4 2 3 4 3 6
24 24 25 25 24 23 21 19 17 14 13 5 2 4 3 2 2 3 4 4 3 3 4 5 3 2 3 4 1 2 2 4 3 3 2 3 2 2 2 3 4 8 2 3 5 4 8
24 24 25 25 23 22 21 18 15 13 10 4 1 1 2 2 3 3 5 6 4 4 2 3 3 1 3 2 2 3 3 3 3 3 2 2 4 2 3 4 6 10 11 5 6 7 8
Wind_Direction
0 0 360 1 1 357 355 353 352 351 351 349 348 348 347 345 341 337 329 322 317 305 292 279 272 259 219 211 253 63 118 147 161 170 159 151 165 173 189 201 181 230 237 229 236 254 262
359 357 357 358 358 354 352 352 350 350 349 348 347 346 344 344 341 336 331 322 315 307 287 265 246 225 227 240 130 156 143 147 159 169 160 156 178 179 187 203 205 209 225 238 250 241 240
356 355 355 354 354 352 350 349 348 348 347 345 345 344 343 342 341 336 330 321 312 306 282 249 214 221 241 248 139 146 147 150 167 171 167 179 168 179 153 172 217 246 238 236 244 232 229
353 353 352 351 351 350 349 347 345 345 344 343 343 343 342 342 340 337 331 320 307 287 268 220 195 215 250 195 201 187 170 119 182 106 179 152 144 195 233 127 132 200 210 235 183 193 205
351 350 348 347 348 348 346 345 343 342 341 340 341 341 340 340 338 337 332 316 281 244 207 186 171 237 257 126 201 186 167 164 171 160 121 147 160 216 190 206 190 181 198 213 162 187 157
348 347 347 347 347 346 344 343 341 340 338 338 337 339 337 337 337 336 336 344 149 167 146 177 261 258 235 209 146 143 161 152 151 157 140 157 178 203 169 202 202 176 198 189 182 147 171
346 345 345 345 344 343 340 340 338 336 335 335 335 335 334 334 335 331 344 341 187 168 214 208 194 236 139 99 134 160 156 145 132 162 171 178 198 206 202 210 228 158 164 187 163 179 179
344 343 342 342 340 338 338 337 336 335 332 331 331 331 330 330 324 314 252 240 232 351 280 224 245 269 276 360 104 146 170 143 158 168 152 158 216 213 225 209 209 204 239 242 97 4 204
343 341 340 339 338 337 336 336 334 332 331 328 327 326 327 325 318 246 220 236 273 353 255 246 193 221 217 180 196 176 183 145 170 159 179 177 217 211 193 188 211 220 229 215 190 117 76
342 342 341 340 338 337 336 334 332 330 328 326 325 325 326 328 231 348 246 256 241 213 265 222 208 234 164 177 180 160 185 167 167 175 176 214 190 158 192 214 204 219 214 195 151 174 160
344 343 342 341 340 338 336 334 332 330 327 324 323 321 320 326 295 244 306 337 170 217 269 149 156 138 158 178 137 176 181 156 171 151 189 189 172 179 207 223 193 224 145 169 166 172 145
345 345 343 341 340 338 336 335 333 331 327 324 321 316 317 300 218 239 293 333 219 209 242 166 137 170 167 190 154 128 175 133 134 172 220 243 286 227 221 141 185 141 107 74 98 179 167
346 345 345 342 339 338 336 335 333 331 328 325 320 311 301 248 233 247 198 230 184 225 329 160 144 163 176 172 129 156 166 176 182 190 214 212 248 186 140 104 132 143 161 161 189 201 166
345 344 342 339 339 335 334 333 331 328 329 323 318 311 263 204 210 113 168 175 202 206 217 27 101 125 183 152 161 172 165 182 188 179 174 206 169 173 158 167 170 143 205 223 218 205 118
344 343 342 341 337 337 336 333 331 331 328 325 318 306 261 233 176 189 182 203 192 204 175 164 88 126 127 122 133 159 186 186 193 189 203 165 163 107 19 122 167 146 180 19 103 73 218
344 344 342 340 341 339 337 337 334 333 328 327 313 308 266 132 158 170 188 201 209 205 130 105 116 356 135 117 139 158 180 180 192 204 224 143 122 47 149 112 52 196 139 159 114 163 215
344 343 343 340 340 340 340 339 337 335 331 325 285 298 27 143 189 191 193 199 223 228 155 71 120 115 105 78 110 106 140 114 134 130 193 202 215 127 163 206 169 146 155 76 90 329 210
345 343 342 341 340 342 341 341 340 339 338 336 318 115 143 177 161 216 177 201 245 141 58 86 102 115 148 143 37 93 105 47 344 137 154 47 134 180 81 7 172 57 153 163 209 184 65
344 343 343 342 342 343 343 342 343 343 345 310 342 298 171 237 122 139 0 295 290 108 106 112 134 114 140 147 140 132 81 352 143 117 149 176 42 146 147 153 118 101 102 92 100 107 176
345 344 344 343 343 345 345 345 342 344 346 277 317 41 0 65 18 56 17 15 117 29 77 103 117 111 115 92 46 154 149 196 89 114 139 93 109 120 275 279 133 165 171 167 145 171 155
346 346 347 346 344 348 350 349 347 348 349 289 5 48 23 357 16 44 30 2 20 71 52 26 88 159 127 115 108 111 158 130 114 167 102 128 163 133 39 217 265 140 157 170 154 141 229
347 347 345 346 350 352 354 352 353 352 347 60 43 12 343 13 348 11 14 13 18 62 5 29 80 82 66 71 17 119 147 149 159 103 80 15 47 78 43 351 127 99 69 103 59 100 240
348 346 347 347 349 348 349 356 358 0 0 36 7 327 290 30 109 357 3 2 333 283 47 53 59 99 70 31 2 63 84 74 57 119 117 134 134 30 155 110 8 102 17 359 69 44 353
347 346 346 346 346 346 351 356 360 5 14 353 2 296 348 45 61 42 338 326 31 30 73 27 33 64 42 297 118 109 70 72 59 48 36 102 150 242 214 199 234 73 40 22 100 74 54
348 348 347 347 348 347 349 355 357 0 9 14 356 2 16 70 351 18 14 7 26 33 43 45 33 357 317 135 111 62 37 108 62 44 32 55 163 123 157 198 73 202 28 8 351 109 73
348 347 347 348 347 346 347 350 353 356 6 14 24 330 347 331 21 315 342 12 19 355 22 19 0 342 43 58 52 60 73 1 63 103 52 51 58 175 125 217 226 78 54 11 154 225 69
347 344 343 345 345 344 345 347 349 353 359 2 12 1 291 54 27 345 26 358 348 14 360 333 346 357 6 46 69 70 99 347 135 54 349 9 25 113 144 115 109 52 3 180 227 59 18
344 340 339 342 344 343 342 343 344 349 351 4 345 357 349 29 345 340 350 7 15 23 16 358 246 41 24 65 58 101 91 78 99 44 17 29 6 78 119 141 188 15 81 286 20 356 351
342 340 339 342 343 340 342 341 341 344 348 19 319 352 334 253 334 303 288 290 273 331 324 31 56 22 28 72 79 115 113 106 140 143 66 174 16 93 15 77 65 59 91 70 15 343 344